Tracking 28790 objects as of 19-Apr-2024
HD Live streaming from Space Station
objects crossing your sky now

ARIANE 5 DEB (SYLDA)

Track ARIANE 5 DEB (SYLDA) now!
10-day predictions


NORAD ID: 40877
Int'l Code: 2015-039D
Perigee: 189.8 km
Apogee: 15,320.8 km
Inclination: 5.0 °
Period: 278.5 minutes
Semi major axis: 14126 km
RCS: Unknown
Launch date: August 20, 2015
Source: France (FR)
Launch site: FRENCH GUIANA (FRGUI)

Note: This is SATELLITE DEBRIS
Your satellite tracking list
Your tracking list is empty




NASA's NSSDC Master Catalog

Two Line Element Set (TLE):
1 40877U 15039D   24110.02792447  .00742233 -15008-6  96447-2 0  9991
2 40877   4.9781 304.8158 5355598 111.4724 312.0736  5.17080689 99314
Source of the keplerian elements: AFSPC